sat.trackr.live / text

‹ back to catalog

BRO-8

NORAD 55011 · 2023-001C

PAYLOAD ACTIVE UNKNOWN

§ Identity

Operator
Country
FR
Launch date
2023-01-03
Launch site
AFETR
Launch vehicle
Mass (kg)
RCS (m²)

External: N2YO · Heavens-Above · Gunter

§ Orbital elements

Epoch: 2026-05-25T04:03:51.553152Z

Period
93.05 min
Inclination
97.3229°
Eccentricity
0.0006144
Mean motion
15.47478216 rev/d
Perigee alt
419.9 km
Apogee alt
428.3 km
Semi-major
6,802.2 km
B*
6.0704e-4
RAAN
210.0462°
Arg perigee
188.7942°
Mean anomaly
171.3202°
Rev number
18,864

§ Raw data

BRO-81 55011U 23001C   26145.16934668  .00031164  00000+0  60704-3 0  99932 55011  97.3229 210.0462 0006144 188.7942 171.3202 15.47478216188643

JSON: /api/v1/satellites/55011 · /tle

For live sub-satellite position, see the globe view (requires WebGL).

§ Visibility from observer

Set your observer location to see the next 7 days of passes ≥ 10°. The values pass through the URL so the page stays shareable.

No JS? Fill the form by hand. The geolocation button needs JavaScript.

§ Radio — SatNOGS DB

ModeDescriptionDownlinkUplink
FSK AX.100 Mode 5 Mode U - TLM 401.735 MHz
FSK S-Band transmitter 2.261 GHz
FSK AX.100 Mode 5 Telemetry 401.612 MHz

3 transmitters · refreshed weekly from db.satnogs.org